Weather History for Owen Roberts, Cayman Islands

Change the Weather History Date:

Monday, June 3, 2013

  Actual Average Record
Temperature  
Mean Temperature 86 °F -  
Max Temperature 89 °F 86 °F 91 °F (2004)
Min Temperature 82 °F 78 °F 73 °F (2005)
Cooling Degree Days 20    
Growing Degree Days 36 (Base 50)    
Moisture  
Dew Point 78 °F    
Average Humidity 81    
Maximum Humidity 89    
Minimum Humidity 69    
Precipitation  
Precipitation 0.02 in - - ()
Sea Level Pressure  
Sea Level Pressure 29.90 in    
Wind  
Wind Speed 9 mph ()    
Max Wind Speed 17 mph    
Max Gust Speed 21 mph    
Visibility 6.2 miles    
Events      
Averages and records for this station are not official NWS values.
T = Trace of Precipitation, MM = Missing Value Source: Averaged Metar Reports

Daily Weather History Graph

Daily Weather History Graph

Search for Another Location

Airport:

Trip Planner

Search our weather history database for the weather conditions in past years. The results will help you decide how hot, cold, wet, or windy it might be!

Date:

Astronomy

Jun. 03, 2013 Rise Set
Actual Time 5:46 AM EST 7:00 PM EST
Civil Twilight 5:22 AM EST 7:25 PM EST
Nautical Twilight 4:53 AM EST 7:53 PM EST
Astronomical Twilight 4:24 AM EST 8:23 PM EST
Moon 2:10 AM EST (6/3) 2:58 PM EST (6/3)
Length of Visible Light 14h 02m
Length of Day
13h 14m
Waning Crescent, 22% of the Moon is Illuminated
Jun 3
Waning Crescent
Jun 8
New
Jun 16
First Quarter
Jun 23
Full
Jun 29
Last Quarter

Hourly Weather History & Observations

Time (EST) Temp. Heat Index Dew Point Humidity Pressure Visibility Wind Dir Wind Speed Gust Speed Precip Events Conditions
6:00 AM 82.4 °F 92.4 °F 78.8 °F 89% 29.89 in - SE 8.1 mph - N/A   Mostly Cloudy
7:00 AM 82.4 °F 90.9 °F 77.0 °F 84% 29.89 in 6.2 mi SE 8.1 mph - N/A   Mostly Cloudy
8:00 AM 84.2 °F 94.1 °F 77.0 °F 79% 29.89 in 6.2 mi SE 9.2 mph - N/A   Scattered Clouds
9:00 AM 86.0 °F 99.3 °F 78.8 °F 79% 29.92 in 6.2 mi SE 8.1 mph - N/A   Scattered Clouds
10:00 AM 86.0 °F 99.3 °F 78.8 °F 79% 29.92 in 6.2 mi SE 9.2 mph - N/A   Scattered Clouds
11:00 AM 86.0 °F 99.3 °F 78.8 °F 79% 29.92 in 6.2 mi SE 9.2 mph - N/A   Scattered Clouds
12:00 PM 87.8 °F 102.5 °F 78.8 °F 75% 29.92 in 6.2 mi SSE 10.4 mph - N/A   Scattered Clouds
1:00 PM 88 °F - 79 °F 69% 29.93 in 6 mi SSE 10.4 mph - -   Partly Cloudy
1:00 PM 87.8 °F 102.5 °F 78.8 °F 75% 29.92 in 6.2 mi SSE 10.4 mph - N/A   Mostly Cloudy
1:55 PM 87.8 °F 102.5 °F 78.8 °F 75% 29.89 in 6.2 mi SE 17.3 mph - N/A   Mostly Cloudy
2:53 PM 86.0 °F 99.3 °F 78.8 °F 79% 29.89 in 6.2 mi SE 16.1 mph - N/A   Mostly Cloudy
3:55 PM 86.0 °F 99.3 °F 78.8 °F 79% 29.86 in 6.2 mi East 8.1 mph 20.7 mph N/A   Mostly Cloudy
4:52 PM 86.0 °F 96.9 °F 77.0 °F 74% 29.86 in 6.2 mi SE 17.3 mph - N/A   Mostly Cloudy
5:50 PM 84.2 °F 96.1 °F 78.8 °F 84% 29.86 in 6.2 mi SE 17.3 mph - N/A   Mostly Cloudy
6:53 PM 84.2 °F 96.1 °F 78.8 °F 84% 29.86 in 6.2 mi SE 15.0 mph - N/A   Mostly Cloudy
7:00 PM 83 °F - 78 °F 80% 29.88 in 6 mi SE 15.0 mph - -   Partly Cloudy
7:55 PM 82.4 °F 92.4 °F 78.8 °F 89% 29.89 in - ESE 10.4 mph - N/A   Clear
8:50 PM 82.4 °F 92.4 °F 78.8 °F 89% 29.92 in - ESE 12.7 mph - N/A   Clear
10:00 PM 82.4 °F 92.4 °F 78.8 °F 89% 29.92 in 6.2 mi SE 12.7 mph - N/A   Mostly Cloudy